Hourly Data Report for October 06, 2017

All times are specified in Local Standard Time (LST). Add 1 hour to adjust for Daylight Saving Time where and when it is observed.

ESKASONI FIRST NATION AUTOMATIC WEATHER STATION
NOVA SCOTIA

45°55'14.000" N
60°38'49.000" W
28.00 m
8201780
71175
AEI

Download Data

Hourly Data (October 2017)
Hourly Data Report for October 6, 2017
Temp Definition
°C
Dew Point Temp Definition
°C
Rel Hum Definition
%
Wind Dir Definition
10's deg

Wind Spd Definition
km/h
Visibility Definition
km
Stn Press Definition
kPa
Hmdx Definition


Wind Chill Definition


Weather Definition


TIME
00:00 9.6 7.1 84 35 3   101.01     LegendNANA
01:00 8.2 6.8 91 35 6   101.00     LegendNANA
02:00 9.4 8.0 91 36 3   100.96     LegendNANA
03:00 9.1 8.5 96 33 2   100.96     LegendNANA
04:00 9.9 9.2 96 30 3   100.99     LegendNANA
05:00 10.7 9.6 93 25 7   101.00     LegendNANA
06:00 12.1 11.0 94 24 11   101.00     LegendNANA
07:00 12.7 11.5 92 24 10   101.01     LegendNANA
08:00 13.8 10.7 82 27 10   101.05     LegendNANA
09:00 15.7 9.7 68 26 10   101.08     LegendNANA
10:00 15.7 10.7 72 27 10   101.09     LegendNANA
11:00 17.5 10.9 65 28 13   101.09     LegendNANA
12:00 17.0 9.7 62 31 13   101.11     LegendNANA
13:00 17.0 7.4 53 30 13   101.09     LegendNANA
14:00 17.7 7.6 52 30 11   101.12     LegendNANA
15:00 16.1 7.9 58 30 10   101.18     LegendNANA
16:00 14.6 8.2 65 30 11   101.19     LegendNANA
17:00 14.2 8.6 69 29 7   101.25     LegendNANA
18:00 13.0 8.7 75 31 12   101.30     LegendNANA
19:00 11.7 8.8 82 35 3   101.31     LegendNANA
20:00 9.9 8.2 89 34 7   101.35     LegendNANA
21:00 10.2 8.7 91 36 7   101.42     LegendNANA
22:00 8.6 7.8 95 35 6   101.47     LegendNANA
23:00 8.5 8.0 96 33 4   101.52     LegendNANA

Notes on Data Quality.

Legend

  • E = Estimated
  • M = Missing
  • NA = Not Available
  • ‡ = Partner data that is not subject to review by the National Climate Archives
Date modified: